Weather History for KLUK - September, 2013

Change the Weather History Date:

Sunday, September 29, 2013

  Actual Average Record
Temperature  
Mean Temperature 62 °F -  
Max Temperature 71 °F 73 °F 90 °F (1971)
Min Temperature 53 °F 49 °F 34 °F (1951)
Degree Days  
Heating Degree Days 4    
Growing Degree Days 12 (Base 50)    
Moisture  
Dew Point 56 °F    
Average Humidity 94    
Maximum Humidity 100    
Minimum Humidity 65    
Precipitation  
Precipitation 0.02 in - - ()
Sea Level Pressure  
Sea Level Pressure 30.07 in    
Wind  
Wind Speed 1 mph (SW)    
Max Wind Speed 13 mph    
Max Gust Speed -    
Visibility 4 miles    
Events Fog , Rain    
Averages and records for this station are not official NWS values.
T = Trace of Precipitation, MM = Missing Value Source: NWS Daily Summary

Daily Weather History Graph

Daily Weather History Graph

Search for Another Location

Airport or City:

Trip Planner

Search our weather history database for the weather conditions in past years. The results will help you decide how hot, cold, wet, or windy it might be!

Date:

Astronomy

Sep. 29, 2013 Rise Set
Actual Time 7:32 AM EDT 7:23 PM EDT
Civil Twilight 7:05 AM EDT 7:49 PM EDT
Nautical Twilight 6:34 AM EDT 8:20 PM EDT
Astronomical Twilight 6:02 AM EDT 8:51 PM EDT
Moon 2:14 AM EDT (9/29) 4:16 PM EDT (9/29)
Length of Visible Light 12h 44m
Length of Day
11h 51m
Waning Crescent, 27% of the Moon is Illuminated
Sep 29
Waning Crescent
Oct 4
New
Oct 11
First Quarter
Oct 18
Full
Oct 26
Last Quarter

Hourly Weather History & Observations

Time (EDT) Temp. Dew Point Humidity Pressure Visibility Wind Dir Wind Speed Gust Speed Precip Events Conditions
12:53 AM 57.0 °F 57.0 °F 100% 30.08 in 4.0 mi Calm Calm - N/A   Clear
1:53 AM 57.0 °F 57.0 °F 100% 30.08 in 3.0 mi Calm Calm - N/A   Clear
1:55 AM 57.2 °F 55.4 °F 94% 30.09 in 1.8 mi Calm Calm - N/A   Clear
2:04 AM 55.4 °F 55.4 °F 100% 30.09 in 0.5 mi Calm Calm - N/A Fog Fog
2:17 AM 55.4 °F 55.4 °F 100% 30.09 in 1.0 mi Calm Calm - N/A   Clear
2:53 AM 55.9 °F 55.9 °F 100% 30.08 in 4.0 mi Calm Calm - N/A   Clear
3:26 AM 55.4 °F 55.4 °F 100% 30.08 in 1.8 mi Calm Calm - N/A   Clear
3:40 AM 55.4 °F 53.6 °F 94% 30.08 in 0.5 mi Calm Calm - N/A Fog Fog
3:53 AM 55.0 °F 55.0 °F 100% 30.07 in 0.2 mi Calm Calm - N/A Fog Fog
4:00 AM 53.6 °F 53.6 °F 100% 30.08 in 0.2 mi Calm Calm - N/A Fog Fog
4:08 AM 53.6 °F 53.6 °F 100% 30.08 in 0.5 mi Calm Calm - N/A Fog Fog
4:18 AM 53.6 °F 53.6 °F 100% 30.08 in 0.2 mi Calm Calm - N/A Fog Fog
4:36 AM 55.4 °F 53.6 °F 94% 30.08 in 0.8 mi Calm Calm - N/A   Mist
4:53 AM 54.0 °F 54.0 °F 100% 30.07 in 0.5 mi Calm Calm - N/A Fog Fog
5:10 AM 55.4 °F 53.6 °F 94% 30.07 in 1.0 mi Calm Calm - N/A   Mist
5:22 AM 55.4 °F 55.4 °F 100% 30.07 in 0.8 mi Calm Calm - 0.01 in   Mist
5:28 AM 55.4 °F 55.4 °F 100% 30.07 in 2.0 mi Calm Calm - 0.01 in   Mostly Cloudy
5:39 AM 55.4 °F 55.4 °F 100% 30.07 in 3.0 mi Calm Calm - 0.01 in   Mostly Cloudy
5:44 AM 55.4 °F 55.4 °F 100% 30.07 in 1.5 mi Calm Calm - 0.01 in   Scattered Clouds
5:46 AM 53.6 °F 53.6 °F 100% 30.07 in 0.8 mi Calm Calm - 0.01 in   Mist
5:53 AM 53.1 °F 53.1 °F 100% 30.06 in 0.2 mi Calm Calm - 0.01 in Fog Fog
6:26 AM 53.6 °F 53.6 °F 100% 30.08 in 0.5 mi Calm Calm - N/A Fog Fog
6:50 AM 53.6 °F 53.6 °F 100% 30.08 in 0.2 mi Calm Calm - N/A Fog Fog
6:53 AM 53.1 °F 53.1 °F 100% 30.07 in 1.0 mi Calm Calm - N/A Fog Patches of Fog
7:53 AM 54.0 °F 54.0 °F 100% 30.08 in 1.0 mi Calm Calm - N/A Fog Patches of Fog
8:00 AM 53.6 °F 53.6 °F 100% 30.08 in 0.5 mi Calm Calm - N/A Fog Patches of Fog
8:53 AM 57.0 °F 57.0 °F 100% 30.08 in 0.5 mi Calm Calm - N/A Fog Patches of Fog
9:22 AM 59.0 °F 59.0 °F 100% 30.08 in 3.0 mi Calm Calm - N/A Fog Patches of Fog
9:53 AM 61.0 °F 60.1 °F 97% 30.07 in 8.0 mi Calm Calm - N/A   Mostly Cloudy
10:53 AM 64.9 °F 60.1 °F 84% 30.08 in 10.0 mi Calm Calm - N/A   Overcast
11:53 AM 69.1 °F 62.1 °F 78% 30.07 in 10.0 mi Variable 3.5 mph - N/A   Overcast
12:53 PM 70.0 °F 57.9 °F 65% 30.07 in 10.0 mi West 11.5 mph - N/A   Mostly Cloudy
1:53 PM 69.1 °F 59.0 °F 70% 30.06 in 10.0 mi SW 5.8 mph - N/A   Mostly Cloudy
2:53 PM 66.0 °F 61.0 °F 84% 30.06 in 9.0 mi WSW 12.7 mph - 0.00 in Rain Light Rain
3:53 PM 66.0 °F 60.1 °F 81% 30.04 in 10.0 mi SW 9.2 mph - 0.01 in   Overcast
4:53 PM 64.9 °F 60.1 °F 84% 30.05 in 10.0 mi SW 9.2 mph - 0.00 in Rain Light Rain
5:53 PM 64.0 °F 59.0 °F 84% 30.04 in 10.0 mi WSW 8.1 mph - 0.00 in   Overcast
6:53 PM 64.0 °F 57.9 °F 80% 30.04 in 10.0 mi SSW 5.8 mph - N/A   Overcast
7:53 PM 63.0 °F 59.0 °F 87% 30.03 in 10.0 mi SSW 8.1 mph - N/A   Overcast
8:53 PM 63.0 °F 59.0 °F 87% 30.04 in 10.0 mi SW 3.5 mph - N/A   Overcast
9:53 PM 63.0 °F 59.0 °F 87% 30.03 in 10.0 mi SSW 4.6 mph - N/A   Overcast
10:53 PM 63.0 °F 59.0 °F 87% 30.04 in 10.0 mi Calm Calm - N/A   Overcast
11:53 PM 62.1 °F 60.1 °F 93% 30.04 in 10.0 mi South 3.5 mph - 0.00 in   Overcast